Location: Donzy-le-Pr�
(47.3659°N, 3.1107°E)
Time: 10:23:00
(UTC+00:00)

Cosmos 1727 Rocket - Pass Details

Date: 03 March 2021
Orbit: 962 x 996 km, 82.9° (Epoch: 22 April)

Event Time Altitude Azimuth Distance (km) Brightness Sun altitude
Rises 20:27:08 0° 347° (NNW) 3,659 7.5 -29.2°
Reaches altitude 10° 20:29:41 10° 344° (NNW) 2,709 6.8 -29.6°
Maximum altitude 20:35:43 57° 268° (W) 1,125 4.4 -30.5°
Enters shadow 20:37:41 40° 213° (SSW) 1,386 4.7 -30.8°
